Location: Errabaliem
(16.8108°N, 80.4255°E)
Time: 06:18:31
(UTC+00:00)

Cosmos 2341 Rocket - Pass Details

Date: 05 August 2024
Orbit: 967 x 1004 km, 82.9° (Epoch: 10 September)

Event Time Altitude Azimuth Distance (km) Brightness Sun altitude
Rises 13:45:49 0° 183° (S) 3,686 6.8 -9.2°
Reaches altitude 10° 13:48:19 10° 184° (S) 2,744 6.2 -9.8°
Maximum altitude 13:54:38 89° 271° (W) 1,000 4.1 -11.2°
Drops below altitude 10° 14:01:01 10° 4° (N) 2,769 6.6 -12.6°
Sets 14:03:33 0° 4° (N) 3,722 7.3 -13.2°
